Voltar ao catálogo

STARLINK-5475

AtivoComunicaçõesVLEO
NORAD 55661·PAYLOAD·🇺🇸 United States

Lançado Feb 17, 2023 de Vandenberg Space Force Base

Loading…

Próximas Passagens (próximas 24 horas)

TLE

AtualizadoSource: CelesTrak SupGP

Época: Sep 14, 2026, 22:20 UTC

1 55661C 23021AK  26257.93104167  .00706130  00000+0  58517-1 0  2574
2 55661  70.0008  47.3460 0002956 276.7479 319.4229 14.98408677    13

Acompanhe STARLINK-5475 em tempo real com AllMySat

Download on the App Store